Regional Weather Roundup
Issued by NWS

Home | Current Version | Previous Version | Text Only | Print | Product List | Glossary Off
Versions: 1 2 3 4 5 6 7 8 9 10 11 12 13 14 15 16 17 18 19 20 21 22 23 24 25 26 27 28 29 30 31 32 33 34 35 36 37 38 39 40 41 42 43 44 45 46 47 48 49 50

000
ASUS43 KIND 271559
RWRIN

WEATHER ROUNDUP FOR INDIANA
NATIONAL WEATHER SERVICE INDIANAPOLIS IN
1200 PM EDT SAT AUG 27 2016

NOTE: "FAIR" INDICATES FEW OR NO CLOUDS BELOW 12,000 FEET WITH NO
SIGNIFICANT WEATHER AND/OR OBSTRUCTIONS TO VISIBILITY.

* - STATION DOES NOT REPORT WEATHER SUCH AS PRECIPITATION OR FOG.

+ - STATION NOT QUALITY CONTROLLED BY THE NATIONAL WEATHER SERVICE.
    USE DATA WITH CAUTION...ESPECIALLY DEWPOINT AND RELATIVE
    HUMIDITY OBSERVATIONS.

INZ001>003-010>013-019-020-271700-
NORTHWEST INDIANA

CITY           SKY/WX    TMP DP  RH WIND       PRES   REMARKS
GARY /AIRPORT/ PTSUNNY   77  73  88 SE9       30.07S
KNOX *+        CLOUDY    72  64  78 SE7       30.08F

$$

LMZ046-743>745-271700-
SOUTHERN LAKE MICHIGAN

STATION/POSITION TIME  TEMP    WIND        PRES    WAVE
                       AIR SEA DIR/SP/G            HT
                 (UTC) (F)     (DEG/KT/KT) (MB)    (FT)
BURNS HARBOR     1508   74     110/ 10/ 14 1018.6F
MICHIGAN CITY    1500   71     110/  7/  9   N/A
5NW MICH CITY    1500   72 75  130/ 10/ 12   N/A     1

$$

INZ004-005-014>016-021>024-271700-
NORTH CENTRAL INDIANA

CITY           SKY/WX    TMP DP  RH WIND       PRES   REMARKS
GOSHEN         TSTM      70  67  90 E3        30.13F FOG
SOUTH BEND     CLOUDY    71  70  96 SE12      30.10F

$$

INZ006>009-017-018-025>027-271700-
NORTHEAST INDIANA

CITY           SKY/WX    TMP DP  RH WIND       PRES   REMARKS
ANGOLA *+      PTSUNNY   72  64  78 NW5       30.15R
FORT WAYNE     CLOUDY    79  71  76 W15G25    30.12F

$$

INZ028-029-035-036-043>045-051>053-271700-
WEST CENTRAL INDIANA

CITY           SKY/WX    TMP DP  RH WIND       PRES   REMARKS
CRAWFORDSVL +  CLOUDY    75  74  97 S3        30.13S
LAFAYETTE      MOSUNNY   78  73  84 SE3       30.09F
TERRE HAUTE    CLOUDY    76  72  87 SE9       30.13S

$$

INZ030>032-037>040-046>048-054>057-064-065-271700-
CENTRAL INDIANA

CITY           SKY/WX    TMP DP  RH WIND       PRES   REMARKS
ANDERSON       LGT RAIN  75  75 100 W8        30.15
COLUMBUS       TSTM      77  75  94 W18       30.16R FOG
INDIANAPOLIS   LGT RAIN  75  71  87 SW5       30.15R
-EAGLE CREEK   LGT RAIN  76  70  82 CALM      30.14S
KOKOMO *+      CLOUDY    73  72  94 CALM      30.13F
MT COMFORT *+  CLOUDY    73  72  94 NW3       30.16R
SHELBYVILLE    LGT RAIN  78  72  81 N5        30.13S

$$

INZ033-034-041-042-049-050-058-059-271700-
EAST CENTRAL INDIANA

CITY           SKY/WX    TMP DP  RH WIND       PRES   REMARKS
MUNCIE         CLOUDY    79  74  84 W7        30.14R

$$

INZ060-061-067>069-081>083-085>088-271700-
SOUTHWEST INDIANA

CITY           SKY/WX    TMP DP  RH WIND       PRES   REMARKS
EVANSVILLE     PTSUNNY   82  70  66 N3        30.12F
HUNTINGBURG *+ CLOUDY    79  72  78 N7        30.14S

$$

INZ062-063-066-070>080-084-089>092-271700-
SOUTH CENTRAL AND SOUTHEAST INDIANA

CITY           SKY/WX    TMP DP  RH WIND       PRES   REMARKS
BLOOMINGTON    RAIN      71  69  93 W3        30.17S FOG
MADISON *+     MOSUNNY   88  72  58 S6        30.13F

$$




USA.gov is the U.S. government's official web portal to all federal, state and local government web resources and services.